| time (UTC) | temp F | wind direction | speed MPH | gust MPH | rain 1hr in | rain 24hr in | rain mn in | humidity % | barometer mb |
| 20260502170503 | 54 | 286 | 1.0 | 3.0 | 0.00 | 0.14 | 0.10 | 84 | 1012.5 |
| 20260502164003 | 54 | 90 | 0.0 | 1.0 | 0.01 | 0.14 | 0.10 | 90 | 1013.2 |
| 20260502163503 | 54 | 80 | 0.0 | 1.0 | 0.01 | 0.14 | 0.09 | 88 | 1013.3 |
| 20260502163002 | 54 | 229 | 1.0 | 2.0 | 0.02 | 0.14 | 0.09 | 88 | 1013.5 |
| 20260502162503 | 54 | 29 | 1.0 | 2.0 | 0.02 | 0.14 | 0.09 | 89 | 1013.6 |
| 20260502161503 | 54 | 62 | 0.0 | 2.0 | 0.01 | 0.13 | 0.10 | 89 | 1013.8 |
| 20260502161003 | 54 | 21 | 1.0 | 2.0 | 0.01 | 0.13 | 0.10 | 87 | 1013.8 |
| 20260502160502 | 54 | 23 | 1.0 | 2.0 | 0.01 | 0.13 | 0.09 | 87 | 1013.8 |
| 20260502152003 | 54 | 27 | 0.0 | 2.0 | 0.02 | 0.11 | 0.09 | 87 | 1013.3 |
| 20260502151502 | 54 | 37 | 1.0 | 2.0 | 0.02 | 0.11 | 0.09 | 88 | 1013.5 |
| 20260502151003 | 54 | 7 | 1.0 | 2.0 | 0.02 | 0.10 | 0.09 | 87 | 1013.4 |
| 20260502150503 | 54 | 242 | 0.0 | 1.0 | 0.02 | 0.10 | 0.08 | 89 | 1013.5 |
| 20260502130503 | 53 | 87 | 1.0 | 2.0 | 0.01 | 0.04 | 0.04 | 86 | 1012.7 |
| 20260502123503 | 52 | 292 | 1.0 | 2.0 | 0.01 | 0.04 | 0.03 | 86 | 1012.6 |
| 20260502122502 | 52 | 2 | 1.0 | 1.0 | 0.02 | 0.04 | 0.03 | 87 | 1012.2 |
| 20260502122002 | 52 | 357 | 1.0 | 2.0 | 0.02 | 0.04 | 0.03 | 87 | 1012.3 |
| 20260502120502 | 52 | 307 | 0.0 | 1.0 | 0.02 | 0.03 | 0.03 | 87 | 1012.4 |
| 20260502115503 | 52 | 57 | 0.0 | 0.0 | 0.02 | 0.03 | 0.02 | 87 | 1012.3 |
| 20260502115003 | 52 | 343 | 0.0 | 0.0 | 0.02 | 0.03 | 0.02 | 86 | 1012.4 |
| 20260502114502 | 52 | 348 | 1.0 | 1.0 | 0.02 | 0.02 | 0.02 | 86 | 1012.5 |
| 20260502113502 | 52 | 350 | 0.0 | 1.0 | 0.02 | 0.02 | 0.02 | 88 | 1012.4 |
| 20260502113004 | 52 | 327 | 0.0 | 1.0 | 0.02 | 0.02 | 0.02 | 88 | 1012.3 |
| 20260502112503 | 52 | 260 | 0.0 | 2.0 | 0.02 | 0.02 | 0.02 | 88 | 1012.5 |
| 20260502112003 | 53 | 210 | 0.0 | 0.0 | 0.01 | 0.02 | 0.01 | 88 | 1012.5 |
| 20260502111502 | 53 | 72 | 0.0 | 1.0 | 0.01 | 0.02 | 0.01 | 87 | 1012.6 |
| 20260502111003 | 53 | 304 | 1.0 | 1.0 | 0.01 | 0.02 | 0.01 | 86 | 1012.6 |
| 20260502110503 | 53 | 327 | 0.0 | 1.0 | 0.01 | 0.01 | 0.01 | 85 | 1012.5 |
| 20260502110003 | 53 | 349 | 0.0 | 1.0 | 0.01 | 0.01 | 0.01 | 85 | 1012.6 |
| 20260502105503 | 53 | 45 | 0.0 | 1.0 | 0.01 | 0.01 | 0.01 | 85 | 1012.6 |
| 20260502104502 | 53 | 328 | 1.0 | 1.0 | 0.00 | 0.01 | 0.00 | 84 | 1012.7 |
| 20260502104003 | 53 | 22 | 1.0 | 1.0 | 0.00 | 0.01 | 0.00 | 83 | 1012.6 |
| 20260502103503 | 53 | 1 | 0.0 | 1.0 | 0.00 | 0.01 | 0.00 | 84 | 1012.6 |
| 20260502103003 | 53 | 97 | 0.0 | 2.0 | 0.00 | 0.01 | 0.00 | 84 | 1012.7 |
| 20260502101503 | 53 | 27 | 1.0 | 2.0 | 0.00 | 0.01 | 0.00 | 86 | 1012.6 |
| 20260502101003 | 53 | 156 | 1.0 | 2.0 | 0.00 | 0.01 | 0.00 | 86 | 1012.5 |
| 20260502100502 | 53 | 7 | 0.0 | 1.0 | 0.00 | 0.01 | 0.00 | 87 | 1012.6 |
| 20260502091003 | 52 | 314 | 0.0 | 0.0 | 0.00 | 0.01 | 0.00 | 90 | 1012.5 |
| 20260502090503 | 52 | 314 | 0.0 | 1.0 | 0.00 | 0.01 | 0.00 | 90 | 1012.4 |
| 20260502071003 | 51 | 352 | 0.0 | 0.0 | 0.00 | 0.01 | 0.00 | 92 | 1011.9 |
| 20260502070502 | 51 | 352 | 0.0 | 0.0 | 0.00 | 0.01 | 0.00 | 92 | 1011.8 |
| 20260502070002 | 51 | 352 | 0.0 | 1.0 | 0.00 | 0.01 | 0.00 | 92 | 1011.8 |
| 20260502065003 | 51 | 332 | 0.0 | 0.0 | 0.00 | 0.01 | 0.00 | 92 | 1011.8 |
| 20260502064503 | 51 | 332 | 0.0 | 1.0 | 0.00 | 0.01 | 0.00 | 91 | 1011.9 |
| 20260502064003 | 51 | 306 | 1.0 | 1.0 | 0.00 | 0.01 | 0.00 | 91 | 1011.9 |
| 20260502063503 | 51 | 274 | 0.0 | 0.0 | 0.00 | 0.01 | 0.00 | 91 | 1011.8 |
| 20260502063003 | 51 | 274 | 0.0 | 0.0 | 0.00 | 0.01 | 0.00 | 91 | 1011.8 |
| 20260502062502 | 51 | 274 | 0.0 | 0.0 | 0.00 | 0.01 | 0.00 | 91 | 1011.9 |
| 20260502062003 | 51 | 274 | 0.0 | 0.0 | 0.00 | 0.01 | 0.00 | 91 | 1012.0 |
| 20260502061503 | 51 | 274 | 0.0 | 0.0 | 0.00 | 0.01 | 0.00 | 91 | 1012.0 |
| 20260502060003 | 51 | 274 | 0.0 | 0.0 | 0.00 | 0.01 | 0.00 | 90 | 1012.0 |
| 20260502055502 | 51 | 274 | 0.0 | 1.0 | 0.00 | 0.01 | 0.00 | 90 | 1012.1 |
| 20260502055003 | 51 | 288 | 1.0 | 1.0 | 0.00 | 0.01 | 0.00 | 90 | 1012.1 |
| 20260502054503 | 51 | 317 | 0.0 | 1.0 | 0.00 | 0.01 | 0.00 | 90 | 1012.1 |
| 20260502054003 | 51 | 219 | 0.0 | 0.0 | 0.00 | 0.01 | 0.00 | 90 | 1012.3 |
| 20260502053503 | 51 | 219 | 0.0 | 0.0 | 0.00 | 0.01 | 0.00 | 90 | 1012.2 |
| 20260502053003 | 51 | 219 | 0.0 | 0.0 | 0.00 | 0.01 | 0.00 | 90 | 1012.2 |
| 20260502052503 | 51 | 219 | 0.0 | 0.0 | 0.00 | 0.01 | 0.00 | 90 | 1012.3 |
| 20260502052003 | 51 | 219 | 0.0 | 0.0 | 0.00 | 0.01 | 0.00 | 90 | 1012.3 |
| 20260502051503 | 52 | 219 | 0.0 | 0.0 | 0.00 | 0.01 | 0.00 | 90 | 1012.5 |
| 20260502051003 | 52 | 219 | 0.0 | 1.0 | 0.00 | 0.01 | 0.00 | 90 | 1012.5 |
| 20260502050503 | 52 | 302 | 0.0 | 0.0 | 0.00 | 0.01 | 0.00 | 89 | 1012.5 |
| 20260502050004 | 52 | 302 | 0.0 | 1.0 | 0.00 | 0.01 | 0.00 | 89 | 1012.5 |
| 20260502045503 | 52 | 242 | 0.0 | 1.0 | 0.00 | 0.01 | 0.00 | 89 | 1012.6 |
| 20260502045003 | 52 | 304 | 0.0 | 0.0 | 0.00 | 0.01 | 0.00 | 89 | 1012.6 |
| 20260502044503 | 51 | 287 | 0.0 | 1.0 | 0.00 | 0.01 | 0.00 | 90 | 1012.5 |
| 20260502044004 | 51 | 355 | 0.0 | 1.0 | 0.00 | 0.01 | 0.00 | 90 | 1012.6 |
| 20260502043503 | 52 | 344 | 0.0 | 0.0 | 0.00 | 0.01 | 0.00 | 89 | 1012.6 |
| 20260502043002 | 52 | 344 | 0.0 | 0.0 | 0.00 | 0.01 | 0.00 | 89 | 1012.6 |
| 20260502042503 | 52 | 344 | 0.0 | 1.0 | 0.00 | 0.01 | 0.00 | 89 | 1012.6 |
| 20260502042004 | 52 | 337 | 0.0 | 0.0 | 0.00 | 0.01 | 0.00 | 89 | 1012.7 |
| 20260502041503 | 52 | 337 | 1.0 | 1.0 | 0.00 | 0.01 | 0.00 | 89 | 1012.7 |
| 20260502041003 | 52 | 220 | 0.0 | 0.0 | 0.00 | 0.01 | 0.00 | 89 | 1012.9 |
| 20260502040503 | 52 | 241 | 0.0 | 0.0 | 0.00 | 0.01 | 0.00 | 88 | 1012.9 |
| 20260502035502 | 52 | 335 | 0.0 | 1.0 | 0.00 | 0.00 | 0.00 | 88 | 1012.9 |
| 20260502035003 | 52 | 324 | 1.0 | 1.0 | 0.00 | 0.00 | 0.00 | 88 | 1012.9 |
| 20260502034003 | 52 | 38 | 0.0 | 0.0 | 0.00 | 0.00 | 0.00 | 88 | 1012.9 |
| 20260502033503 | 52 | 38 | 0.0 | 0.0 | 0.00 | 0.00 | 0.00 | 87 | 1012.9 |
| 20260502033004 | 52 | 38 | 0.0 | 0.0 | 0.00 | 0.00 | 0.00 | 87 | 1012.8 |
| 20260502032503 | 52 | 38 | 0.0 | 0.0 | 0.00 | 0.00 | 0.00 | 87 | 1012.9 |
| 20260502031503 | 53 | 147 | 0.0 | 0.0 | 0.00 | 0.00 | 0.00 | 86 | 1012.9 |
| 20260502031003 | 53 | 147 | 0.0 | 0.0 | 0.00 | 0.00 | 0.00 | 86 | 1013.0 |
| 20260502030503 | 53 | 147 | 0.0 | 1.0 | 0.00 | 0.00 | 0.00 | 85 | 1013.0 |
| 20260502030003 | 53 | 115 | 0.0 | 0.0 | 0.00 | 0.00 | 0.00 | 85 | 1013.0 |
| 20260502025503 | 53 | 115 | 0.0 | 1.0 | 0.00 | 0.00 | 0.00 | 84 | 1013.1 |
| 20260502025003 | 53 | 47 | 0.0 | 0.0 | 0.00 | 0.00 | 0.00 | 84 | 1013.1 |
| 20260502024504 | 53 | 47 | 0.0 | 0.0 | 0.00 | 0.00 | 0.00 | 84 | 1013.0 |
| 20260502023504 | 53 | 106 | 0.0 | 1.0 | 0.00 | 0.00 | 0.00 | 84 | 1013.0 |
| 20260502023004 | 53 | 177 | 0.0 | 1.0 | 0.00 | 0.00 | 0.00 | 84 | 1013.0 |
| 20260502022503 | 53 | 187 | 0.0 | 1.0 | 0.00 | 0.00 | 0.00 | 84 | 1013.1 |
| 20260502022003 | 53 | 89 | 0.0 | 0.0 | 0.00 | 0.00 | 0.00 | 84 | 1013.2 |
| 20260502021503 | 53 | 190 | 0.0 | 1.0 | 0.00 | 0.00 | 0.00 | 83 | 1013.2 |
| 20260502021003 | 53 | 92 | 0.0 | 1.0 | 0.00 | 0.00 | 0.00 | 83 | 1013.1 |
| 20260502020503 | 53 | 86 | 0.0 | 1.0 | 0.00 | 0.00 | 0.00 | 83 | 1013.1 |
| 20260502020003 | 53 | 215 | 0.0 | 1.0 | 0.00 | 0.00 | 0.00 | 83 | 1013.2 |
| 20260502015503 | 53 | 307 | 0.0 | 0.0 | 0.00 | 0.00 | 0.00 | 82 | 1013.1 |
| 20260502015003 | 53 | 107 | 0.0 | 0.0 | 0.00 | 0.00 | 0.00 | 82 | 1013.1 |
| 20260502014004 | 53 | 71 | 0.0 | 1.0 | 0.00 | 0.00 | 0.00 | 82 | 1013.1 |
| 20260502013503 | 53 | 48 | 0.0 | 1.0 | 0.00 | 0.00 | 0.00 | 82 | 1013.0 |
| 20260502013003 | 53 | 249 | 0.0 | 1.0 | 0.00 | 0.00 | 0.00 | 82 | 1013.0 |
| 20260502012503 | 53 | 153 | 0.0 | 1.0 | 0.00 | 0.00 | 0.00 | 83 | 1013.0 |
| 20260502012003 | 53 | 129 | 0.0 | 1.0 | 0.00 | 0.00 | 0.00 | 82 | 1013.1 |
| 20260502011503 | 53 | 353 | 0.0 | 1.0 | 0.00 | 0.00 | 0.00 | 82 | 1013.1 |
| 20260502011004 | 53 | 283 | 0.0 | 1.0 | 0.00 | 0.00 | 0.00 | 82 | 1013.0 |
| 20260502010004 | 53 | 76 | 0.0 | 1.0 | 0.00 | 0.00 | 0.00 | 80 | 1012.8 |
| 20260502005503 | 53 | 341 | 0.0 | 1.0 | 0.00 | 0.00 | 0.00 | 80 | 1012.8 |
| 20260502005003 | 53 | 52 | 0.0 | 1.0 | 0.00 | 0.00 | 0.00 | 79 | 1012.9 |
| 20260502004503 | 53 | 93 | 0.0 | 1.0 | 0.00 | 0.00 | 0.00 | 78 | 1012.9 |
| 20260502004004 | 53 | 245 | 0.0 | 2.0 | 0.00 | 0.00 | 0.00 | 78 | 1012.7 |
| 20260502003004 | 54 | 139 | 0.0 | 0.0 | 0.00 | 0.00 | 0.00 | 76 | 1012.5 |
| 20260502002503 | 54 | 351 | 0.0 | 0.0 | 0.00 | 0.00 | 0.00 | 76 | 1012.5 |
| 20260502002003 | 54 | 191 | 1.0 | 3.0 | 0.00 | 0.00 | 0.00 | 76 | 1012.4 |
| 20260502001503 | 55 | 204 | 0.0 | 2.0 | 0.00 | 0.00 | 0.00 | 75 | 1012.4 |
| 20260502001003 | 55 | 257 | 1.0 | 5.0 | 0.00 | 0.00 | 0.00 | 75 | 1012.5 |
| 20260502000503 | 55 | 166 | 1.0 | 3.0 | 0.00 | 0.00 | 0.00 | 74 | 1012.5 |
| 20260502000003 | 55 | 97 | 1.0 | 2.0 | 0.00 | 0.00 | 0.00 | 76 | 1012.4 |
| 20260501235503 | 55 | 46 | 1.0 | 3.0 | 0.00 | 0.00 | 0.00 | 75 | 1012.5 |
| 20260501235003 | 56 | 28 | 1.0 | 2.0 | 0.00 | 0.00 | 0.00 | 75 | 1012.5 |
| 20260501234503 | 56 | 186 | 0.0 | 1.0 | 0.00 | 0.00 | 0.00 | 74 | 1012.5 |
| 20260501234004 | 56 | 233 | 0.0 | 1.0 | 0.00 | 0.00 | 0.00 | 74 | 1012.5 |
| 20260501232503 | 56 | 204 | 1.0 | 3.0 | 0.00 | 0.00 | 0.00 | 74 | 1012.4 |
| 20260501232003 | 56 | 203 | 1.0 | 2.0 | 0.00 | 0.00 | 0.00 | 74 | 1012.2 |
| 20260501231504 | 56 | 316 | 1.0 | 2.0 | 0.00 | 0.00 | 0.00 | 74 | 1012.3 |
| 20260501231003 | 57 | 251 | 1.0 | 3.0 | 0.00 | 0.00 | 0.00 | 72 | 1012.2 |
| 20260501230503 | 57 | 149 | 1.0 | 3.0 | 0.00 | 0.00 | 0.00 | 72 | 1012.3 |
| 20260501230003 | 57 | 204 | 1.0 | 3.0 | 0.00 | 0.00 | 0.00 | 71 | 1012.3 |
| 20260501225004 | 57 | 172 | 0.0 | 2.0 | 0.00 | 0.00 | 0.00 | 72 | 1012.3 |
| 20260501224503 | 57 | 275 | 1.0 | 2.0 | 0.00 | 0.00 | 0.00 | 71 | 1012.5 |
| 20260501224003 | 58 | 242 | 1.0 | 3.0 | 0.00 | 0.00 | 0.00 | 70 | 1012.6 |
| 20260501223504 | 58 | 151 | 1.0 | 3.0 | 0.00 | 0.00 | 0.00 | 69 | 1012.7 |
| 20260501223004 | 58 | 211 | 1.0 | 3.0 | 0.00 | 0.00 | 0.00 | 69 | 1012.8 |
| 20260501222503 | 58 | 286 | 1.0 | 3.0 | 0.00 | 0.00 | 0.00 | 69 | 1012.8 |
| 20260501222004 | 57 | 173 | 2.0 | 3.0 | 0.00 | 0.00 | 0.00 | 69 | 1012.8 |
| 20260501221003 | 57 | 247 | 1.0 | 2.0 | 0.00 | 0.00 | 0.00 | 69 | 1012.9 |
| 20260501220503 | 57 | 218 | 1.0 | 2.0 | 0.00 | 0.00 | 0.00 | 69 | 1013.0 |
| 20260501215503 | 57 | 252 | 1.0 | 3.0 | 0.00 | 0.00 | 0.00 | 69 | 1013.1 |
| 20260501215003 | 57 | 232 | 1.0 | 3.0 | 0.00 | 0.00 | 0.00 | 69 | 1013.0 |
| 20260501214503 | 57 | 49 | 0.0 | 1.0 | 0.00 | 0.00 | 0.00 | 70 | 1013.0 |
| 20260501213503 | 57 | 195 | 1.0 | 5.0 | 0.00 | 0.00 | 0.00 | 70 | 1013.1 |
| 20260501213004 | 57 | 245 | 2.0 | 3.0 | 0.00 | 0.00 | 0.00 | 68 | 1013.1 |
| 20260501212004 | 57 | 194 | 1.0 | 5.0 | 0.00 | 0.00 | 0.00 | 67 | 1012.9 |
| 20260501211503 | 58 | 218 | 1.0 | 5.0 | 0.00 | 0.00 | 0.00 | 68 | 1013.0 |
| 20260501210504 | 58 | 133 | 1.0 | 5.0 | 0.00 | 0.00 | 0.00 | 69 | 1013.0 |
| 20260501210003 | 58 | 144 | 2.0 | 6.0 | 0.00 | 0.00 | 0.00 | 68 | 1013.0 |
| 20260501205503 | 58 | 239 | 2.0 | 5.0 | 0.00 | 0.00 | 0.00 | 68 | 1012.9 |
| 20260501204504 | 58 | 263 | 2.0 | 5.0 | 0.00 | 0.00 | 0.00 | 68 | 1013.1 |
| 20260501204004 | 58 | 205 | 2.0 | 3.0 | 0.00 | 0.00 | 0.00 | 67 | 1013.2 |
| 20260501203503 | 58 | 333 | 1.0 | 3.0 | 0.00 | 0.00 | 0.00 | 68 | 1013.3 |
| 20260501203003 | 59 | 151 | 2.0 | 5.0 | 0.00 | 0.00 | 0.00 | 65 | 1013.3 |
| 20260501202503 | 60 | 264 | 1.0 | 5.0 | 0.00 | 0.00 | 0.00 | 63 | 1013.3 |
| 20260501202004 | 60 | 290 | 2.0 | 7.0 | 0.00 | 0.00 | 0.00 | 59 | 1013.1 |
| 20260501201503 | 61 | 232 | 2.0 | 7.0 | 0.00 | 0.00 | 0.00 | 57 | 1013.1 |
| 20260501201004 | 62 | 140 | 1.0 | 3.0 | 0.00 | 0.00 | 0.00 | 54 | 1013.1 |
| 20260501200503 | 63 | 240 | 2.0 | 3.0 | 0.00 | 0.00 | 0.00 | 51 | 1013.1 |
| 20260501200003 | 63 | 208 | 2.0 | 3.0 | 0.00 | 0.00 | 0.00 | 51 | 1013.1 |
| 20260501195004 | 63 | 182 | 2.0 | 5.0 | 0.00 | 0.00 | 0.00 | 53 | 1013.2 |
| 20260501194503 | 63 | 225 | 2.0 | 5.0 | 0.00 | 0.00 | 0.00 | 50 | 1013.2 |
| 20260501194003 | 64 | 192 | 2.0 | 5.0 | 0.00 | 0.00 | 0.00 | 51 | 1013.3 |
| 20260501193004 | 64 | 163 | 2.0 | 3.0 | 0.00 | 0.00 | 0.00 | 52 | 1013.3 |
| 20260501191503 | 65 | 171 | 1.0 | 3.0 | 0.00 | 0.00 | 0.00 | 51 | 1013.3 |
| 20260501190503 | 65 | 243 | 1.0 | 3.0 | 0.00 | 0.00 | 0.00 | 49 | 1013.5 |
| 20260501190003 | 65 | 235 | 2.0 | 6.0 | 0.00 | 0.00 | 0.00 | 48 | 1013.6 |
| 20260501185503 | 65 | 334 | 2.0 | 5.0 | 0.00 | 0.00 | 0.00 | 48 | 1013.5 |
| 20260501184504 | 63 | 277 | 1.0 | 3.0 | 0.00 | 0.00 | 0.00 | 47 | 1013.9 |
| 20260501184004 | 63 | 282 | 1.0 | 3.0 | 0.00 | 0.00 | 0.00 | 48 | 1014.2 |
| 20260501183003 | 63 | 76 | 0.0 | 2.0 | 0.00 | 0.00 | 0.00 | 50 | 1014.2 |
| 20260501182503 | 63 | 190 | 1.0 | 3.0 | 0.00 | 0.00 | 0.00 | 47 | 1014.3 |
| 20260501182003 | 63 | 179 | 1.0 | 3.0 | 0.00 | 0.00 | 0.00 | 47 | 1014.3 |
| 20260501181004 | 64 | 190 | 2.0 | 3.0 | 0.00 | 0.00 | 0.00 | 45 | 1014.2 |
| 20260501180503 | 65 | 294 | 2.0 | 5.0 | 0.00 | 0.00 | 0.00 | 47 | 1014.3 |
| 20260501180003 | 66 | 233 | 2.0 | 5.0 | 0.00 | 0.00 | 0.00 | 47 | 1014.4 |
| 20260501175503 | 65 | 46 | 1.0 | 5.0 | 0.00 | 0.00 | 0.00 | 47 | 1014.1 |
| 20260501174503 | 64 | 11 | 2.0 | 3.0 | 0.00 | 0.00 | 0.00 | 47 | 1014.2 |
| 20260501173504 | 64 | 62 | 2.0 | 5.0 | 0.00 | 0.00 | 0.00 | 48 | 1014.3 |
| 20260501173004 | 63 | 235 | 1.0 | 3.0 | 0.00 | 0.00 | 0.00 | 45 | 1014.2 |
| 20260501172004 | 63 | 206 | 1.0 | 5.0 | 0.00 | 0.00 | 0.00 | 48 | 1014.5 |